Regional Weather Roundup
Issued by NWS Upton, NY

Current Version | Previous Version | Text Only | Print | Product List | Glossary Off
Versions: 1 2 3 4 5 6 7 8 9 10 11 12 13 14 15 16 17 18 19 20 21 22 23 24 25 26 27 28 29 30 31 32 33 34 35 36 37 38 39 40 41 42 43 44 45 46 47 48 49 50
303 ASUS41 KOKX 241608 RWROKX REGIONAL WEATHER ROUNDUP NATIONAL WEATHER SERVICE NEW YORK NY 1200 PM EDT FRI MAR 24 2017 NOTE: "FAIR" INDICATES FEW OR NO CLOUDS BELOW 12,000 FEET WITH NO SIGNIFICANT WEATHER AND/OR OBSTRUCTIONS TO VISIBILITY. NYZ071-072-176-178-NJZ106-104-241700- NEW YORK CITY METRO AREA CITY SKY/WX TMP DP RH WIND PRES REMARKS Central Park CLOUDY 45 21 38 W8G18 30.40F Wall St Helipt CLOUDY 45 25 45 SW9 30.41F LaGuardia APRT CLOUDY 47 21 35 SW16G23 30.39F Kennedy INTL CLOUDY 44 34 67 S17 30.41F Breezy Point N/A 43 N/A N/A S8 N/A Newark/Liberty CLOUDY 46 22 38 S17G23 30.39F Teterboro DRIZZLE 45 24 43 S12G21 30.38F $$ NYZ177-179-078>081-241700- LONG ISLAND NEW YORK CITY SKY/WX TMP DP RH WIND PRES REMARKS Jones Beach N/A 43 N/A N/A SW14G23 N/A Matinecock PT NOT AVBL Farmingdale CLOUDY 44 29 55 SW17G31 30.41F MacArthur/ISP CLOUDY 45 30 55 S22G30 30.41F Shirley CLOUDY 44 33 65 S13G25 30.42F Westhampton PTSUNNY 43 29 57 SW15G24 30.43F East Hampton PTSUNNY 43 29 58 SW13G20 30.42F Montauk NOT AVBL $$ NYZ052-065-067-241700- HUDSON VALLEY CITY SKY/WX TMP DP RH WIND PRES REMARKS White Plains LGT RAIN 43 22 43 VRB5G20 30.36F Newburgh LGT RAIN 39 23 52 S12 30.34F WCI 32 Montgomery LGT RAIN 39 25 57 SW10 30.31F WCI 32 Poughkeepsie CLOUDY 39 20 46 S9 30.31F WCI 33 Albany LGT RAIN 34 24 67 S12G21 30.24F WCI 25 $$ NJZ001-105-106-008-010-013-015-019>022-104-241700- NEW JERSEY CITY SKY/WX TMP DP RH WIND PRES REMARKS Newark/Liberty CLOUDY 46 22 38 S17G23 30.39F Teterboro DRIZZLE 45 24 43 S12G21 30.38F Caldwell CLOUDY 43 21 41 VRB6 30.38F Somerville CLOUDY 45 25 45 S9 30.36F Linden CLOUDY 46 21 37 SW5 30.39F Sussex LGT RAIN 39 26 59 SW8 30.31F WCI 33 Andover N/A 40 26 57 S7 30.32F Trenton CLOUDY 48 25 40 SW18G28 30.37F Millville CLOUDY 47 26 44 S9G22 30.42F Atlantic City CLOUDY 50 16 25 SW15G24 30.42F Wrightstown CLOUDY 51 20 30 SW17G25 30.36F Toms River CLOUDY 50 21 32 SW17G24 30.41F Belmar PTSUNNY 48 20 32 S15G25 30.39F $$ PAZ047>061-062-071-241700- EASTERN PENNSYLVANIA CITY SKY/WX TMP DP RH WIND PRES REMARKS Philadelphia CLOUDY 48 27 44 SW22G29 30.39F Allentown CLOUDY 42 27 55 SW10 30.35F Scranton LGT RAIN 35 32 88 CALM 30.28R FOG $$ CTZ002-004>006-009-010-012-RIZ004-006-007-MAZ004-011-015-241700- SOUTHERN NEW ENGLAND IN CT CITY SKY/WX TMP DP RH WIND PRES REMARKS Bradley INTL LGTSLEET 38 26 62 S15 30.34F WCI 29 Hartford SLEET 40 27 59 S13G23 30.35F WCI 32 Danbury CLOUDY 41 25 53 SW15G24 30.35F Wtrbury/Oxford PTSUNNY 37 23 56 SW9G20 30.35F WCI 31 Bridgeport CLOUDY 45 29 53 SW14 30.40F Meriden CLOUDY 41 27 57 S10 30.37F New Haven CLOUDY 42 30 62 S9 30.40F Chester NOT AVBL Groton CLOUDY 42 30 62 SW16 30.40F Wilimantic CLOUDY 42 26 53 S10 30.38F IN RI CITY SKY/WX TMP DP RH WIND PRES REMARKS Providence CLOUDY 42 26 53 SW20G26 30.40F Block Island CLOUDY 43 30 60 S21 30.43F Westerly CLOUDY 43 31 62 SW14G23 30.43F IN MA CITY SKY/WX TMP DP RH WIND PRES REMARKS Boston CLOUDY 40 27 59 SW14G20 30.39F WCI 32 Worcester CLOUDY 36 17 46 S22G29 30.30F WCI 25 Westfield LGT SNOW 37 21 52 S12 30.31F WCI 29 Provincetown CLOUDY 39 28 64 S16 30.43F WCI 30 Nantucket CLOUDY 40 25 55 S13 30.47F WCI 32 $$ ANZ330-335-338-340-345-350-353-355-241700- COASTAL MARINE OBSERVATIONS STATION/POSITION TIME SKY/WX TEMP WIND PRES VSBY WAVE AIR SEA DIR/SP/G HT/PER (UTC) (F) (DEG/KT/KT) (MB) (MI) (FT/S) NY HARB ENTRANCE 1450 42 41 200/ 19/ 23 1030.6 4/ 5 20 S FIRE ISLAND 1550 42 40 200/ 17/ 21 1030.1 5/ 5 GREAT SOUTH BAY NOT AVBL 23 SSW MONTAUK P 1450 42 42 1032.1 4/ 5 15 E BARNEGAT LI 1530 42 N/A 4/ 5 HUDSON CANYON 1450 45 44 210/ 16/ 19 1033.2 3/ 4 KINGS POINT 1548 42 38 1029.0 EXECUTION ROCKS NOT AVBL CENTRAL LI SOUND 1530 40 200/ 14/ 17 N/A 2/ 3 EASTERN LI SOUND NOT AVBL ROBBINS REEF 1548 45 200/ 14/ 18 1029.2 $$ >>>>>>>>>>>>>>>>>>>>>>>>>>>> KEY <<<<<<<<<<<<<<<<<<<<<<<<<<< > < > SKY/WX - Sky Condition/Present Weather < > TMP - Temperature in Fahrenheit < > DP - Dew Point in Fahrenheit < > RH - Relative Humidity in Percent < > WIND - Direction (from) and Speed in MPH < > PRES - Mean Sea Level Pressure (inches of Hg) < > WCI - Wind Chill Index < > VSB - VISIBILITY IN MILES < > HX - HEAT INDEX < > TC - TEMPERATURE IN CELSIUS < > VRB - VARIABLE WIND DIRECTION < > < >>>>>>>>>>>>>>>>>>>>>>>>>>>> KEY <<<<<<<<<<<<<<<<<<<<<<<<<<<

USA.gov is the U.S. government's official web portal to all federal, state and local government web resources and services.